Regional Weather Roundup
Issued by NWS

Home | Current Version | Previous Version | Graphics & Text | Print | Product List | Glossary Off
Versions: 1 2 3 4 5 6 7 8 9 10 11 12 13 14 15 16 17 18 19 20 21 22 23 24 25 26 27 28 29 30 31 32 33 34 35 36 37 38 39 40 41 42 43 44 45 46 47 48 49 50

000
ASUS43 KLSX 072157
RWRMO

WEATHER SUMMARY FOR MISSOURI
NATIONAL WEATHER SERVICE SPRINGFIELD MO
400 PM CST SUN FEB 07 2016

NOTE: "FAIR" INDICATES FEW OR NO CLOUDS BELOW 12,000 FEET WITH NO
       SIGNIFICANT WEATHER AND/OR OBSTRUCTIONS TO VISIBILITY.
       CURRENT SKY AND/OR WEATHER CONDITIONS ARE NOT AVAILABLE FOR
       CHILLICOTHE AND FARMINGTON.

MOZ001>031-035>038-043-044-053-054-072300-
...NORTHERN AND WESTERN MISSOURI...

CITY           SKY/WX    TMP DP  RH WIND       PRES   REMARKS
KANSAS CTY INT PTSUNNY   49  19  30 NW21G29   29.98F
LEE`S SUMMIT   PTSUNNY   50  23  34 NW21G30   29.99S
ST JOSEPH      MOSUNNY   48  17  29 NW36G44   29.98F
CHILLICOTHE      N/A     50  25  37 NW14G22   29.94F

$$
MOZ066>068-077>081-088>096-101>105-072300-
...SOUTHWEST MISSOURI...

CITY           SKY/WX    TMP DP  RH WIND       PRES   REMARKS
SPRINGFIELD    PTSUNNY   49  27  42 W15       30.02R
JOPLIN         MOSUNNY   54  20  26 NW18G26   30.06S

$$
MOZ032>034-039>042-045>050-055>058-069>072-072300-
...CENTRAL MISSOURI...

CITY           SKY/WX    TMP DP  RH WIND       PRES   REMARKS
COLUMBIA       NOT AVBL
JEFFERSON CITY MOSUNNY   51  23  33 W12       29.93F
ROLLA          MOSUNNY   50  29  44 W12G22    29.92F
SEDALIA        PTSUNNY   51  22  31 W15G26    29.98R

$$
MOZ051-052-059>065-072300-
...EAST CENTRAL MISSOURI...

CITY           SKY/WX    TMP DP  RH WIND       PRES   REMARKS
ST LOUIS INTL  MOSUNNY   53  29  39 W13G22    29.90R

$$
MOZ072>076-082>087-097>100-106>115-072300-
...SOUTH CENTRAL AND SOUTHEAST MISSOURI...

CITY           SKY/WX    TMP DP  RH WIND       PRES   REMARKS
CAPE GIRARDEAU CLOUDY    55  32  41 SW16G24   29.92F
POPLAR BLUFF   CLOUDY    57  27  31 W14G21    29.94S
WEST PLAINS    MOSUNNY   53  26  35 W15       29.97S

$$



USA.gov is the U.S. government's official web portal to all federal, state and local government web resources and services.